TimeCST,TemperatureF,Dew PointF,Humidity,Sea Level PressureIn,VisibilityMPH,Wind Direction,Wind SpeedMPH,Gust SpeedMPH,PrecipitationIn,Events,Conditions,WindDirDegrees,DateUTC
12:52 AM,10.0,6.1,84,30.15,1.8,SW,4.6,-,0.01,Snow,Light Snow,220,2013-02-02 06:52:00
1:14 AM,10.4,6.8,85,30.09,2.0,SSW,5.8,-,0.01,Snow,Light Snow,210,2013-02-02 07:14:00
1:38 AM,10.4,6.8,85,30.08,1.5,SSW,4.6,-,0.01,Snow,Light Snow,200,2013-02-02 07:38:00
1:52 AM,10.0,7.0,87,30.13,1.2,SSW,3.5,-,0.02,Snow,Light Snow,210,2013-02-02 07:52:00
2:31 AM,10.4,8.6,92,30.06,1.8,Calm,Calm,-,0.02,Snow,Light Snow,0,2013-02-02 08:31:00
2:52 AM,10.9,8.1,88,30.10,1.8,SW,3.5,-,0.02,Snow,Light Snow,220,2013-02-02 08:52:00
3:33 AM,12.2,8.6,85,30.03,1.2,Calm,Calm,-,0.02,Snow,Light Snow,0,2013-02-02 09:33:00
3:52 AM,12.0,8.1,84,30.08,1.2,NW,3.5,-,0.02,Snow,Light Snow,310,2013-02-02 09:52:00
4:02 AM,12.2,8.6,85,30.02,2.0,Calm,Calm,-,0.01,Snow,Light Snow,0,2013-02-02 10:02:00
4:52 AM,12.0,9.0,88,30.07,2.0,NW,4.6,-,0.01,Snow,Light Snow,320,2013-02-02 10:52:00
5:52 AM,10.9,8.1,88,30.06,2.0,NNW,6.9,-,0.00,Snow,Light Snow,330,2013-02-02 11:52:00
6:19 AM,10.4,6.8,85,30.02,5.0,NNW,8.1,-,0.00,Snow,Light Snow,340,2013-02-02 12:19:00
6:52 AM,10.0,6.1,84,30.08,3.0,NNW,8.1,-,0.00,Snow,Light Snow,340,2013-02-02 12:52:00
7:52 AM,9.0,3.9,80,30.10,6.0,NNW,10.4,-,0.00,Snow,Light Snow,340,2013-02-02 13:52:00
8:40 AM,8.6,1.4,73,30.05,5.0,NNW,10.4,-,0.00,Snow,Light Snow,340,2013-02-02 14:40:00
8:46 AM,8.6,1.4,73,30.05,2.5,North,10.4,-,0.00,Snow,Light Snow,350,2013-02-02 14:46:00
8:52 AM,9.0,3.0,77,30.10,1.8,North,8.1,-,0.00,Snow,Light Snow,360,2013-02-02 14:52:00
9:05 AM,8.6,3.2,79,30.05,2.0,North,6.9,-,0.00,Snow,Light Snow,350,2013-02-02 15:05:00
9:30 AM,8.6,3.2,79,30.06,8.0,NNW,8.1,-,0.00,Snow,Light Snow,340,2013-02-02 15:30:00
9:52 AM,9.0,1.0,70,30.11,4.0,NNW,10.4,-,0.00,,Haze,340,2013-02-02 15:52:00
10:52 AM,10.0,1.0,67,30.11,10.0,NNW,11.5,-,N/A,,Mostly Cloudy,330,2013-02-02 16:52:00
11:52 AM,10.9,1.0,64,30.10,10.0,NNW,9.2,-,N/A,,Mostly Cloudy,330,2013-02-02 17:52:00
12:52 PM,12.0,1.0,61,30.10,10.0,NNW,11.5,-,N/A,,Mostly Cloudy,340,2013-02-02 18:52:00
1:52 PM,12.9,1.0,59,30.09,10.0,North,9.2,-,N/A,,Mostly Cloudy,350,2013-02-02 19:52:00
2:52 PM,12.9,1.0,59,30.10,10.0,NE,8.1,-,N/A,,Mostly Cloudy,50,2013-02-02 20:52:00
3:52 PM,12.9,-0.9,54,30.11,10.0,North,4.6,-,N/A,,Mostly Cloudy,360,2013-02-02 21:52:00
4:52 PM,12.9,-0.0,56,30.11,10.0,NW,4.6,-,N/A,,Mostly Cloudy,320,2013-02-02 22:52:00
5:52 PM,10.9,-0.9,59,30.12,10.0,NW,9.2,-,N/A,,Mostly Cloudy,310,2013-02-02 23:52:00
6:52 PM,9.0,-0.9,64,30.13,10.0,WNW,11.5,-,N/A,,Overcast,300,2013-02-03 00:52:00
7:52 PM,8.6,-2.2,62,30.07,10.0,NW,9.2,-,N/A,,Overcast,310,2013-02-03 01:52:00
8:52 PM,9.0,-0.9,64,30.10,10.0,WNW,10.4,-,N/A,,Overcast,290,2013-02-03 02:52:00
9:52 PM,8.1,-2.0,64,30.08,10.0,West,4.6,-,N/A,,Scattered Clouds,280,2013-02-03 03:52:00
10:52 PM,8.1,-2.0,64,30.07,10.0,Calm,Calm,-,N/A,,Mostly Cloudy,0,2013-02-03 04:52:00
11:52 PM,8.1,-2.0,64,30.06,10.0,WNW,4.6,-,N/A,,Mostly Cloudy,300,2013-02-03 05:52:00